Content
SEND FEEDBACK

Daily
Averages
Monthly
Summary
United States of America

PRAIRIE DU ROCHER, ILLINOIS


Home > North America > United States > Illinois
Elevation: 400 feet     Latitude: 38 05N     Longitude: 090 06W

WEATHER
 
SELECT A DAY
Number of Records: 326,812;   Date Range: 7/17/01 - 7/22/14
 
SHARE

PRINT THIS DATA

[ ← Previous Day ]
WEATHER ALMANAC - FEBRUARY 13, 2013
[ Next Day → ]
[ °C ]   °F
Weather ElementAverageHighLow
Temperature42.7 °F51.8 °F (2:15 pm)35.6 °F (5:55 am)
Dewpoint33.1 °F41 °F (9:55 am)19.4 °F (5:15 pm)
Humidity74.2 %100 % (1:15 am)30 % (3:15 pm)
Barometer29.88 in29.94 in (12:35 am)29.83 in (2:55 pm)
Wind Speed5.4 mph13.8 mph (3:55 pm)
Wind Gust18.4 mph (2:55 pm)
Weather ElementAverage
Visibility8.8 mi
Wind DirectionSSW (218 °)

Weather ElementTotal
Precipitation0.03 in
Heating Degree Days21.3 (Base 65)
Averaged from 71 records on February 13, 2013
WEATHER CONDITIONS BREAKOUT
WIND DIRECTION BREAKOUT
WEATHER BY HOUR - FEBRUARY 13, 2013
[ °C ]   °F
Local TimeTemperatureDewpointHumidityBarometerVisibilityWind DirectionWind SpeedGust SpeedPrecipitationEventsConditions
12:35 AM39.2 °F37.4 °F93 %29.94 in10.0 miNNW (340°)5.8 mphDrizzle
12:55 AM39.2 °F37.4 °F93 %29.94 in10.0 miNW (320°)4.6 mphLight Drizzle
1:15 AM39.2 °F39.2 °F100 %29.93 in7.0 miCalmRainLight Rain
1:35 AM39.2 °F39.2 °F100 %29.93 in10.0 miNW (320°)3.5 mphDrizzle
1:55 AM39.2 °F37.4 °F93 %29.92 in10.0 miNW (320°)8.1 mphDrizzle
2:15 AM37.4 °F37.4 °F100 %29.92 in7.0 miNW (320°)8.1 mphRainRain
2:35 AM37.4 °F37.4 °F100 %29.91 in10.0 miNW (320°)4.6 mphRainRain
2:55 AM37.4 °F37.4 °F100 %29.91 in10.0 miCalmDrizzle
3:15 AM37.4 °F37.4 °F100 %29.91 in7.0 miCalmRainLight Rain
3:35 AM39.2 °F39.2 °F100 %29.90 in7.0 miNW (310°)4.6 mphRainLight Rain
3:55 AM39.2 °F39.2 °F100 %29.90 in7.0 miNNW (340°)5.8 mphRainLight Rain
4:15 AM37.4 °F37.4 °F100 %29.89 in7.0 miNNW (340°)5.8 mph0.01 inRainLight Rain
4:35 AM37.4 °F37.4 °F100 %29.89 in10.0 miNW (310°)4.6 mph0.01 inRainRain
4:55 AM37.4 °F37.4 °F100 %29.88 in5.0 miWest (260°)5.8 mph0.01 inDrizzle
5:15 AM37.4 °F37.4 °F100 %29.88 in5.0 miNorthRainLight Rain
5:35 AM37.4 °F37.4 °F100 %29.88 in4.0 miWest (280°)4.6 mphDrizzle
5:55 AM35.6 °F35.6 °F100 %29.88 in4.0 miWest (270°)3.5 mphRainLight Rain
6:15 AM35.6 °F35.6 °F100 %29.88 in4.0 miCalmRainLight Rain
6:35 AM35.6 °F35.6 °F100 %29.89 in5.0 miCalmRainLight Rain
6:55 AM35.6 °F35.6 °F100 %29.90 in4.0 miCalmDrizzle
7:15 AM35.6 °F35.6 °F100 %29.90 in4.0 miCalmDrizzle
7:35 AM37.4 °F37.4 °F100 %29.91 in4.0 miCalmLight Drizzle
7:55 AM37.4 °F37.4 °F100 %29.92 in5.0 miCalmOvercast
8:15 AM37.4 °F37.4 °F100 %29.92 in7.0 miWest (260°)3.5 mph
8:35 AM37.4 °F37.4 °F100 %29.92 in7.0 miWSW (250°)3.5 mphScattered Clouds
8:55 AM37.4 °F37.4 °F100 %29.92 in7.0 miWSW (240°)3.5 mphScattered Clouds
9:15 AM39.2 °F39.2 °F100 %29.92 in7.0 miWSW (250°)3.5 mphMostly Cloudy
9:35 AM39.2 °F39.2 °F100 %29.92 in10.0 miWSW (240°)3.5 mphScattered Clouds
9:55 AM41.0 °F41.0 °F100 %29.91 in10.0 miWSW (240°)6.9 mphMostly Cloudy
10:15 AM41.0 °F39.2 °F93 %29.91 in10.0 miWest (280°)6.9 mphScattered Clouds
10:35 AM41.0 °F39.2 °F93 %29.91 in10.0 miWSW (250°)5.8 mphScattered Clouds
10:55 AM42.8 °F39.2 °F87 %29.90 in10.0 miSSW (200°)6.9 mphClear
11:15 AM44.6 °F39.2 °F81 %29.90 in10.0 miWSW (240°)8.1 mphClear
11:35 AM44.6 °F37.4 °F76 %29.90 in10.0 miWSW (240°)5.8 mphClear
11:55 AM46.4 °F35.6 °F66 %29.88 in10.0 miSW (230°)6.9 mphClear
12:15 PM46.4 °F32.0 °F57 %29.88 in10.0 miSW (230°)8.1 mphClear
12:35 PM48.2 °F33.8 °F58 %29.87 in10.0 miWSW (240°)5.8 mphClear
12:55 PM48.2 °F32.0 °F54 %29.86 in10.0 miSW (220°)6.9 mphClear
1:15 PM48.2 °F28.4 °F46 %29.85 in10.0 miWSW (240°)5.8 mph9.2 mphClear
1:35 PM50.0 °F28.4 °F43 %29.85 in10.0 miSW (220°)8.1 mphClear
1:55 PM50.0 °F26.6 °F40 %29.84 in10.0 miWest (260°)9.2 mph17.3 mphClear
2:15 PM51.8 °F28.4 °F41 %29.84 in10.0 miSW (230°)8.1 mph16.1 mphClear
2:35 PM51.8 °F26.6 °F38 %29.84 in10.0 miWSW (250°)10.4 mph17.3 mphClear
2:55 PM51.8 °F24.8 °F35 %29.83 in10.0 miWSW (250°)12.7 mph18.4 mphClear
3:15 PM51.8 °F21.2 °F30 %29.83 in10.0 miSW (230°)11.5 mph17.3 mphScattered Clouds
3:35 PM51.8 °F21.2 °F30 %29.84 in10.0 miWSW (240°)11.5 mph16.1 mphClear
3:55 PM51.8 °F21.2 °F30 %29.83 in10.0 miWSW (250°)13.8 mph17.3 mphClear
4:15 PM51.8 °F21.2 °F30 %29.84 in10.0 miWSW (250°)8.1 mphClear
4:35 PM51.8 °F23.0 °F33 %29.84 in10.0 miWSW (240°)8.1 mphClear
4:55 PM51.8 °F21.2 °F30 %29.84 in10.0 miWSW (240°)8.1 mphClear
5:15 PM50.0 °F19.4 °F30 %29.84 in10.0 miSW (230°)8.1 mphClear
5:35 PM48.2 °F23.0 °F37 %29.84 in10.0 miWSW (240°)5.8 mphClear
5:55 PM48.2 °F24.8 °F40 %29.85 in10.0 miSW (230°)5.8 mphClear
6:15 PM46.4 °F26.6 °F46 %29.85 in10.0 miSW (220°)5.8 mphClear
6:35 PM46.4 °F26.6 °F46 %29.85 in10.0 miSW (220°)4.6 mphClear
6:55 PM46.4 °F28.4 °F50 %29.86 in10.0 miSW (220°)4.6 mphClear
7:15 PM46.4 °F28.4 °F50 %29.87 in10.0 miWSW (240°)4.6 mphClear
7:35 PM44.6 °F30.2 °F57 %29.87 in10.0 miWSW (240°)4.6 mphClear
7:55 PM44.6 °F30.2 °F57 %29.87 in10.0 miSW (230°)5.8 mphClear
8:15 PM44.6 °F30.2 °F57 %29.88 in10.0 miWSW (240°)5.8 mphClear
8:35 PM44.6 °F32.0 °F61 %29.88 in10.0 miWSW (240°)4.6 mphClear
8:55 PM42.8 °F32.0 °F66 %29.89 in10.0 miWSW (250°)6.9 mphClear
9:15 PM42.8 °F33.8 °F70 %29.89 in10.0 miWSW (250°)5.8 mphClear
9:35 PM42.8 °F33.8 °F70 %29.89 in10.0 miWSW (250°)5.8 mphClear
9:55 PM41.0 °F33.8 °F76 %29.89 in10.0 miWSW (240°)3.5 mphClear
10:15 PM41.0 °F33.8 °F76 %29.90 in10.0 miWSW (240°)3.5 mphClear
10:35 PM39.2 °F33.8 °F81 %29.90 in10.0 miSW (230°)3.5 mphClear
10:55 PM39.2 °F33.8 °F81 %29.90 in10.0 miWSW (240°)3.5 mphClear
11:15 PM39.2 °F33.8 °F81 %29.90 in10.0 miSW (230°)3.5 mphClear
11:35 PM39.2 °F35.6 °F87 %29.90 in10.0 miSW (220°)5.8 mphClear
11:55 PM39.2 °F33.8 °F81 %29.90 in10.0 miSW (220°)4.6 mphClear
Hourly data recorded from KSAR, located miles away from Prairie Du Rocher, Illinois







STORIES FROM OUR PARTNERS